Back to catalog

GLOBALSTAR M095

AliveCommunicationsLEO
NORAD 39077·PAYLOAD·🇺🇸 United States

Launched Feb 6, 2013 from Baikonur Cosmodrome

Loading…

Next Passes (next 24 hours)

TLE

FreshSource: Space-Track

Epoch: Sep 14, 2026, 07:27 UTC

1 39077U 13005F   26257.31070112 -.00000105  00000-0 -85189-5 0  9996
2 39077  52.0107   9.9332 0001030 116.9379 243.1593 12.62264444627129

Track GLOBALSTAR M095 in real time with AllMySat

Download on the App Store